Location: Newark
(55.6875°N, 12.5794°E)
Time: 18:20:55
(UTC+00:00)

N. Korean satellite - Visible Passes

Search period start: 15 December 2019 00:00
Search period end: 25 December 2019 00:00
Orbit: 455 x 507 km, 97.2° (Epoch: 14 December)

Date Brightness Start Highest point End Pass type
(mag) Time Alt. Az. Time Alt. Az. Time Alt. Az.
15 Dec 8.9 04:26:00 10° NE 04:28:56 24° E 04:31:50 10° SSE visible
15 Dec 7.0 05:59:10 10° N 06:02:28 36° WNW 06:05:41 10° SW visible
15 Dec 8.6 16:41:38 10° SSW 16:44:57 31° W 16:48:15 10° NNW visible
16 Dec 9.8 04:01:17 10° NE 04:03:15 14° E 04:05:11 10° ESE visible
16 Dec 6.4 05:33:34 10° N 05:37:06 66° WNW 05:40:32 10° SSW visible
16 Dec 7.4 16:15:47 10° S 16:19:24 56° W 16:23:00 10° NNW visible
17 Dec 6.8 05:08:07 10° NNE 05:11:38 66° ESE 05:15:04 10° S visible
17 Dec 8.1 06:42:24 10° NNW 06:44:38 16° WNW 06:46:49 10° W visible
17 Dec 6.5 15:50:16 10° SSE 15:53:56 80° ENE 15:57:34 10° NNW visible
17 Dec 10.0 17:26:04 10° WSW 17:27:49 13° W 17:29:34 10° WNW visible
18 Dec 8.1 04:42:49 10° NNE 04:46:05 35° E 04:49:17 10° SSE visible
18 Dec 7.5 06:16:27 10° N 06:19:24 25° WNW 06:22:18 10° WSW visible
18 Dec 6.9 15:25:03 10° SE 15:28:32 44° ENE 15:32:00 10° N visible
18 Dec 9.3 16:59:14 10° SW 17:02:07 22° W 17:05:00 10° NW visible
19 Dec 9.2 04:17:48 10° NE 04:20:27 20° E 04:23:05 10° SE visible
19 Dec 6.8 05:50:43 10° N 05:54:04 43° WNW 05:57:22 10° SW visible
19 Dec 8.2 16:33:06 10° SSW 16:36:30 37° W 16:39:55 10° NNW visible
20 Dec 10.0 03:53:25 10° ENE 03:54:44 12° E 03:56:01 10° ESE visible
20 Dec 6.3 05:25:10 10° NNE 05:28:41 81° WNW 05:32:07 10° SSW visible
20 Dec 7.0 16:07:22 10° S 16:10:59 68° WSW 16:14:35 10° NNW visible
21 Dec 7.2 04:59:45 10° NNE 05:03:11 53° E 05:06:34 10° S visible
21 Dec 7.9 06:33:49 10° NNW 06:36:17 18° WNW 06:38:43 10° WSW visible
21 Dec 6.5 15:41:56 10° SSE 15:45:32 66° ENE 15:49:06 10° N visible
21 Dec 9.8 17:17:08 10° SW 17:19:20 15° W 17:21:30 10° NW visible
22 Dec 8.5 04:34:31 10° NNE 04:37:37 29° E 04:40:39 10° SSE visible
22 Dec 7.3 06:07:56 10° N 06:11:01 30° WNW 06:14:03 10° SW visible
22 Dec 9.0 16:50:36 10° SSW 16:53:39 25° W 16:56:42 10° NW visible
23 Dec 9.5 04:09:37 10° NE 04:11:57 17° E 04:14:15 10° SE visible
23 Dec 6.5 05:42:16 10° N 05:45:40 52° WNW 05:49:01 10° SSW visible
23 Dec 7.8 16:24:35 10° S 16:28:04 44° W 16:31:31 10° NNW visible
24 Dec 6.4 05:16:45 10° NNE 05:20:14 83° ESE 05:23:40 10° SSW visible
24 Dec 8.3 06:51:23 10° NNW 06:53:07 13° NW 06:54:52 10° W visible
24 Dec 6.6 15:58:56 10° SSE 16:02:33 83° WSW 16:06:09 10° NNW visible
24 Dec 10.2 17:36:02 10° W 17:36:34 10° W 17:37:05 10° WNW visible
